Location: Thompson
(55.7500°N, 97.8670°W)
Time: 11:30:15
(UTC-06:00)

Amateur Radio Satellites - All Passes

Search period start: 19 December 2014 11:00
Search period end: 20 December 2014 11:00
Location: Thompson, 55.7500°N, 97.8670°W

Satellite Date Start Highest point End Downlink Frequencies (MHz)
Time Altitude Azimuth
CANX-2 19 Dec 11:04:14 11:07:46 25° 301° (WNW) 11:11:17 2200.000
POLYITAN 1 19 Dec 11:06:17 11:10:12 37° 263° (W) 11:14:10 437.675
NANOSAT C BR1 19 Dec 11:09:56 11:13:48 35° 264° (W) 11:17:42 145.865
GOMX 1 19 Dec 11:15:00 11:18:54 29° 299° (WNW) 11:23:01 467.674
UWE-3 19 Dec 11:20:21 11:24:52 69° 289° (WNW) 11:29:27 435.000/436.395/437.385
FUNcube-1 19 Dec 11:23:25 11:27:53 74° 288° (WNW) 11:32:26 145.935
DANDE 19 Dec 11:24:28 11:28:16 47° 295° (WNW) 11:33:25 436.750
QB50P1 19 Dec 11:24:29 11:28:05 27° 267° (W) 11:31:42 145.935-145.965
SPROUT 19 Dec 11:26:16 11:27:39 11° 83° (E) 11:29:03 437.525
O/OREOS (USA 219) 19 Dec 11:26:55 11:30:58 33° 251° (WSW) 11:35:01 437.305
TISAT 1 19 Dec 11:27:37 11:29:14 12° 85° (E) 11:30:52 437.305
Oscar 19 19 Dec 11:28:41 11:32:52 26° 54° (NE) 11:37:04 437.125/150
COMPASS 1 19 Dec 11:30:29 11:33:41 21° 303° (WNW) 11:36:52 437.405
Gurwin Techsat 1B 19 Dec 11:31:10 11:32:48 11° 39° (NE) 11:34:27 435.225
SEEDS 19 Dec 11:34:12 11:37:08 18° 305° (NW) 11:40:03 437.485
AISAT 19 Dec 11:35:13 11:39:41 87° 106° (ESE) 11:44:08 437.250
CUTE 1.7 + AOD 2 19 Dec 11:35:51 11:38:33 16° 307° (NW) 11:41:15 437.475
TIGRISAT 19 Dec 11:36:37 11:39:36 18° 273° (W) 11:42:39 435.000
DX 1 19 Dec 11:41:03 11:45:05 38° 297° (WNW) 11:49:07 434.975-435.025
HO-68 19 Dec 11:42:07 11:48:28 36° 310° (NW) 11:54:48 435.675
ITAMSAT 1 19 Dec 11:42:25 11:45:43 17° 47° (NE) 11:49:01 435.822/435.867
CUBEBUG 1 19 Dec 11:46:36 11:50:51 51° 100° (E) 11:55:04 437.445
DOVE 4 19 Dec 11:47:30 11:50:59 22° 303° (WNW) 11:54:35 437.250
MaSat-1 19 Dec 11:51:45 11:52:47 12° 325° (NW) 11:53:49 437.345
POPSAT HIP 1 19 Dec 11:54:19 11:56:56 16° 272° (W) 11:59:33 437.405
DELFI C3 19 Dec 11:55:38 11:59:02 25° 300° (WNW) 12:02:24 145.870
50 SAT 19 Dec 11:57:17 12:01:24 65° 289° (WNW) 12:05:32 437.505
Oscar 11 19 Dec 12:06:44 12:10:00 21° 304° (NW) 12:13:15 145.826/435.025
UNISAT 6 19 Dec 12:07:58 12:08:29 10° 279° (W) 12:09:01 437.425
HUMSAT D 19 Dec 12:08:17 12:12:24 46° 293° (WNW) 12:16:33 437.325/437.525
AO-7 19 Dec 12:13:27 12:19:12 21° 25° (NNE) 12:24:56 29.400- 29.500
UKube-1 19 Dec 12:14:09 12:17:34 23° 303° (WNW) 12:20:59 .
CUBEBUG 2 19 Dec 12:16:11 12:19:52 25° 301° (WNW) 12:23:38 437.445
CINEMA 3 19 Dec 12:23:52 12:26:53 18° 307° (NW) 12:29:58 145.822/145.860
CUSAT 1 19 Dec 12:24:26 12:27:42 19° 314° (NW) 12:31:39 437.405
ESTCUBE 1 19 Dec 12:26:37 12:31:09 73° 289° (WNW) 12:35:38 437.505/2401.250
HORYU 2 19 Dec 12:27:48 12:28:06 10° 43° (NE) 12:28:23 437.375
VELOX 1 19 Dec 12:29:40 12:33:44 36° 297° (WNW) 12:37:46 145.980
RS-15 19 Dec 12:29:57 12:40:09 49° 117° (ESE) 12:50:28 29.354- 29.394
ZACube-1 19 Dec 12:33:09 12:36:39 23° 303° (WNW) 12:40:11 437.345
YUBILEINY 19 Dec 12:34:35 12:42:45 48° 273° (W) 12:50:55 435.215
GONETS M04 19 Dec 12:38:11 12:40:33 11° 10° (N) 12:42:54
UWE-3 19 Dec 12:58:10 13:00:42 15° 309° (NW) 13:03:15 435.000/436.395/437.385
SPROUT 19 Dec 13:00:16 13:04:35 71° 103° (ESE) 13:08:53 437.525
FUNcube-1 19 Dec 13:00:57 13:03:34 16° 308° (NW) 13:06:13 145.935
TISAT 1 19 Dec 13:01:36 13:05:51 76° 105° (ESE) 13:10:04 437.305
Gurwin Techsat 1B 19 Dec 13:06:35 13:11:29 39° 61° (ENE) 13:16:24 435.225
Oscar 19 19 Dec 13:06:38 13:11:47 75° 255° (WSW) 13:17:00 437.125/150
ITUPSAT 1 19 Dec 13:09:41 13:13:18 21° 89° (E) 13:16:54 437.325
SWISSCUBE 19 Dec 13:09:43 13:13:29 23° 90° (E) 13:17:13 437.505
DANDE 19 Dec 13:11:52 13:13:40 12° 324° (NW) 13:15:37 436.750
AISAT 19 Dec 13:12:43 13:15:48 19° 307° (NW) 13:18:52 437.250
ITAMSAT 1 19 Dec 13:19:15 13:24:23 67° 68° (ENE) 13:29:33 435.822/435.867
BEESAT 3 19 Dec 13:19:17 13:20:09 11° 110° (ESE) 13:21:01 437.485
CUBEBUG 1 19 Dec 13:23:22 13:27:02 27° 300° (WNW) 13:30:42 437.445
HO-68 19 Dec 13:30:38 13:34:19 15° 334° (NNW) 13:37:59 435.675
50 SAT 19 Dec 13:34:03 13:35:54 13° 310° (NW) 13:37:46 437.505
BEESAT 19 Dec 13:34:43 13:39:03 33° 95° (E) 13:43:20 436.000
AUBIESAT-1 19 Dec 13:39:07 13:41:08 13° 89° (E) 13:43:05 437.475
HUMSAT D 19 Dec 13:46:48 13:47:15 10° 314° (NW) 13:47:42 437.325/437.525
JAS-2 19 Dec 13:55:15 13:59:38 18° 41° (NE) 14:03:46 435.910
BEESAT 2 19 Dec 13:55:25 13:58:25 20° 117° (ESE) 14:01:26 435.950
HORYU 2 19 Dec 13:59:29 14:03:42 42° 64° (ENE) 14:07:57 437.375
AO-7 19 Dec 14:02:21 14:10:09 46° 51° (NE) 14:17:58 29.400- 29.500
M-CUBED/EXP-1 PRIME 19 Dec 14:02:41 14:06:14 22° 95° (E) 14:09:34 437.505
ESTCUBE 1 19 Dec 14:04:39 14:07:19 16° 310° (NW) 14:09:59 437.505/2401.250
YUBILEINY 19 Dec 14:33:52 14:37:16 13° 298° (WNW) 14:40:39 435.215
GONETS M04 19 Dec 14:35:19 14:41:58 23° 43° (NE) 14:48:33
SPROUT 19 Dec 14:37:04 14:40:17 21° 304° (WNW) 14:43:31 437.525
TISAT 1 19 Dec 14:38:13 14:41:15 20° 305° (NW) 14:44:17 437.305
RS-15 19 Dec 14:41:04 14:52:00 77° 325° (NW) 15:03:13 29.354- 29.394
PCSat 19 Dec 14:46:05 14:51:10 43° 120° (ESE) 14:56:18 145.827
Gurwin Techsat 1B 19 Dec 14:46:20 14:51:26 46° 262° (W) 14:56:34 435.225
ITUPSAT 1 19 Dec 14:46:56 14:51:44 73° 290° (WNW) 14:56:29 437.325
SWISSCUBE 19 Dec 14:47:03 14:51:49 68° 291° (WNW) 14:56:32 437.505
Oscar 19 19 Dec 14:49:09 14:52:04 15° 276° (W) 14:54:59 437.125/150
AIST 2 19 Dec 14:53:10 14:56:56 31° 123° (ESE) 15:00:45 435.215
BEESAT 3 19 Dec 14:53:25 14:57:28 55° 130° (SE) 15:01:35 437.485
STARS 19 Dec 14:59:08 15:03:10 33° 96° (E) 15:07:11 437.465
KKS-1 19 Dec 14:59:51 15:04:10 45° 99° (E) 15:08:28 437.445
ITAMSAT 1 19 Dec 15:00:07 15:04:22 25° 269° (W) 15:08:38 435.822/435.867
CUTE-I 19 Dec 15:03:33 15:04:44 11° 37° (NE) 15:05:55 437.470
AUBIESAT-1 19 Dec 15:12:24 15:17:00 74° 110° (ESE) 15:21:13 437.475
BEESAT 19 Dec 15:12:29 15:17:04 47° 295° (WNW) 15:21:38 436.000
HO-68 19 Dec 15:19:08 15:19:11 10° 1° (N) 15:19:15 435.675
ISS 19 Dec 15:20:17 15:22:28 17° 150° (SSE) 15:24:39 145.825
BEESAT 2 19 Dec 15:32:00 15:36:10 88° 318° (NW) 15:40:25 435.950
JAS-2 19 Dec 15:36:21 15:43:29 51° 63° (ENE) 15:49:55 435.910
HORYU 2 19 Dec 15:36:24 15:40:29 33° 264° (W) 15:44:36 437.375
M-CUBED/EXP-1 PRIME 19 Dec 15:37:07 15:41:45 67° 297° (WNW) 15:45:59 437.505
AO-7 19 Dec 15:54:27 16:02:44 66° 254° (WSW) 16:11:06 29.400- 29.500
MOZHAYETS 4 19 Dec 16:01:49 16:03:19 11° 82° (E) 16:04:49
Cubesat XI-IV 19 Dec 16:05:55 16:10:05 24° 52° (NE) 16:14:15 437.490
ITUPSAT 1 19 Dec 16:25:54 16:28:55 17° 311° (NW) 16:31:55 437.325
SWISSCUBE 19 Dec 16:26:04 16:28:54 16° 312° (NW) 16:31:44 437.505
PCSat 19 Dec 16:29:13 16:34:33 55° 322° (NW) 16:39:55 145.827
AIST 2 19 Dec 16:31:06 16:35:22 62° 324° (NW) 16:39:40 435.215
BEESAT 3 19 Dec 16:31:53 16:35:50 40° 332° (NNW) 16:39:50 437.485
GONETS M04 19 Dec 16:32:09 16:40:56 64° 71° (ENE) 16:49:35
MaSat-1 19 Dec 16:35:33 16:36:36 12° 35° (NE) 16:37:39 437.345
STARS 19 Dec 16:35:35 16:39:46 41° 296° (WNW) 16:43:56 437.465
KKS-1 19 Dec 16:36:46 16:40:43 32° 299° (WNW) 16:44:40 437.445
CUTE-I 19 Dec 16:38:38 16:43:27 36° 59° (ENE) 16:48:17 437.470
AUBIESAT-1 19 Dec 16:47:50 16:51:32 24° 312° (NW) 16:55:00 437.475
BEESAT 19 Dec 16:52:09 16:53:53 12° 317° (NW) 16:55:36 436.000
RS-15 19 Dec 16:55:14 17:05:57 54° 356° (N) 17:17:01 29.354- 29.394
ISS 19 Dec 16:55:25 16:58:28 36° 169° (S) 17:01:31 145.825
AIST 1 19 Dec 16:55:31 16:59:46 51° 95° (E) 17:04:00
HO-68 19 Dec 17:00:16 17:04:05 15° 27° (NNE) 17:07:54 435.675
BEESAT 2 19 Dec 17:11:10 17:14:56 31° 340° (NNW) 17:18:43 435.950
M-CUBED/EXP-1 PRIME 19 Dec 17:12:59 17:15:58 17° 319° (NW) 17:18:49 437.505
JAS-2 19 Dec 17:21:20 17:28:36 50° 262° (W) 17:35:12 435.910
MOZHAYETS 4 19 Dec 17:36:52 17:41:31 65° 102° (ESE) 17:46:06
CUSAT 1 19 Dec 17:43:51 17:47:16 14° 39° (NE) 17:51:00 437.405
Cubesat XI-IV 19 Dec 17:44:18 17:49:39 85° 253° (WSW) 17:55:01 437.490
AO-7 19 Dec 17:51:45 17:57:16 19° 278° (W) 18:02:51 29.400- 29.500
MaSat-1 19 Dec 18:07:58 18:10:15 67° 236° (WSW) 18:12:39 437.345
AIST 2 19 Dec 18:10:58 18:14:42 27° 347° (NNW) 18:18:27 435.215
BEESAT 3 19 Dec 18:11:31 18:14:57 24° 355° (N) 18:18:24 437.485
PCSat 19 Dec 18:14:24 18:19:03 28° 347° (NNW) 18:23:41 145.827
CUTE-I 19 Dec 18:18:15 18:23:26 51° 260° (W) 18:28:38 437.470
GONETS M04 19 Dec 18:29:25 18:37:28 42° 275° (W) 18:45:26
DANDE 19 Dec 18:29:31 18:34:20 20° 48° (NE) 18:39:50 436.750
ISS 19 Dec 18:31:37 18:34:41 37° 189° (S) 18:37:45 145.825
AIST 1 19 Dec 18:34:02 18:37:43 26° 296° (WNW) 18:41:23
STRAND 1 19 Dec 18:39:47 18:44:00 26° 91° (E) 18:48:13 437.568
HO-68 19 Dec 18:43:33 18:49:58 37° 51° (NE) 18:56:24 435.675
BRITE-PL 19 Dec 18:44:34 18:47:07 16° 53° (NE) 18:49:42 437.365/2234.400
AAUSAT CUBESAT 2 19 Dec 18:46:04 18:47:44 12° 49° (NE) 18:49:24 437.432
PRISM 19 Dec 18:46:38 18:50:45 52° 101° (E) 18:54:48 437.425
BEESAT 2 19 Dec 18:50:48 18:54:15 24° 4° (N) 18:57:43 435.950
CANX-2 19 Dec 18:53:54 18:56:59 20° 56° (NE) 19:00:05 2200.000
CUBESAT XI-V 19 Dec 18:56:44 19:01:04 38° 96° (E) 19:05:22 437.345
RS-15 19 Dec 19:09:09 19:20:12 68° 28° (NNE) 19:31:42 29.354- 29.394
JAS-2 19 Dec 19:12:22 19:15:11 12° 283° (WNW) 19:17:57 435.910
MOZHAYETS 4 19 Dec 19:14:38 19:18:24 25° 303° (WNW) 19:22:09
GOMX 1 19 Dec 19:16:01 19:19:10 21° 57° (ENE) 19:22:24 467.674
COMPASS 1 19 Dec 19:18:35 19:21:51 22° 58° (ENE) 19:25:09 437.405
SEEDS 19 Dec 19:22:16 19:25:49 26° 60° (ENE) 19:29:24 437.485
CUTE 1.7 + AOD 2 19 Dec 19:24:01 19:27:45 30° 62° (ENE) 19:31:31 437.475
CUSAT 1 19 Dec 19:25:51 19:32:19 39° 62° (ENE) 19:39:54 437.405
Cubesat XI-IV 19 Dec 19:27:01 19:30:34 18° 274° (W) 19:34:08 437.490
DX 1 19 Dec 19:33:41 19:36:20 16° 51° (NE) 19:38:59 434.975-435.025
DELFI C3 19 Dec 19:42:23 19:45:01 17° 54° (NE) 19:47:41 145.870
DOVE 4 19 Dec 19:45:50 19:49:26 29° 61° (ENE) 19:53:07 437.250
BEESAT 3 19 Dec 19:50:29 19:54:13 30° 19° (NNE) 19:57:56 437.485
AIST 2 19 Dec 19:50:47 19:54:27 26° 10° (N) 19:58:08 435.215
Oscar 11 19 Dec 19:56:52 20:00:26 25° 59° (ENE) 20:04:02 145.826/435.025
PCSat 19 Dec 19:59:25 20:04:02 27° 12° (NNE) 20:08:38 145.827
HUMSAT D 19 Dec 20:00:11 20:01:17 11° 47° (NE) 20:02:23 437.325/437.525
UKube-1 19 Dec 20:04:45 20:08:18 25° 58° (ENE) 20:11:52 .
ISS 19 Dec 20:08:25 20:10:43 18° 209° (SSW) 20:13:00 145.825
CUBEBUG 2 19 Dec 20:09:37 20:12:55 22° 57° (ENE) 20:16:18 437.445
DANDE 19 Dec 20:12:19 20:19:07 58° 69° (ENE) 20:27:22 436.750
AAUSAT CUBESAT 2 19 Dec 20:18:26 20:22:35 58° 69° (ENE) 20:26:47 437.432
STRAND 1 19 Dec 20:18:35 20:23:39 65° 292° (WNW) 20:28:41 437.568
CINEMA 3 19 Dec 20:18:41 20:22:31 35° 63° (ENE) 20:26:29 145.822/145.860
BRITE-PL 19 Dec 20:20:57 20:25:06 90° 255° (WSW) 20:29:19 437.365/2234.400
PRISM 19 Dec 20:22:36 20:26:04 26° 301° (WNW) 20:29:30 437.425
VELOX 1 19 Dec 20:23:38 20:26:32 18° 52° (NE) 20:29:26 145.980
ZACube-1 19 Dec 20:24:43 20:28:04 23° 58° (ENE) 20:31:29 437.345
ESTCUBE 1 19 Dec 20:25:00 20:25:41 10° 44° (NE) 20:26:22 437.505/2401.250
CANX-2 19 Dec 20:28:10 20:32:28 78° 256° (WSW) 20:36:49 2200.000
BEESAT 2 19 Dec 20:29:28 20:33:28 39° 27° (NNE) 20:37:26 435.950
GONETS M04 19 Dec 20:29:43 20:31:43 11° 301° (WNW) 20:33:43
HO-68 19 Dec 20:30:08 20:37:19 73° 254° (WSW) 20:44:32 435.675
CUBESAT XI-V 19 Dec 20:34:17 20:38:33 38° 297° (WNW) 20:42:47 437.345
UWE-3 19 Dec 20:49:08 20:53:04 39° 65° (ENE) 20:57:07 435.000/436.395/437.385
FUNcube-1 19 Dec 20:51:07 20:54:58 36° 63° (ENE) 20:58:55 145.935
GOMX 1 19 Dec 20:52:53 20:56:59 63° 258° (WSW) 21:01:12 467.674
COMPASS 1 19 Dec 20:53:01 20:57:14 65° 258° (WSW) 21:01:29 437.405
SEEDS 19 Dec 20:57:16 21:01:26 52° 260° (W) 21:05:39 437.485
CUTE 1.7 + AOD 2 19 Dec 20:59:27 21:03:34 45° 262° (W) 21:07:44 437.475
AISAT 19 Dec 21:04:49 21:08:47 33° 62° (ENE) 21:12:46 437.250
DX 1 19 Dec 21:07:36 21:11:57 79° 71° (ENE) 21:16:19 434.975-435.025
CUSAT 1 19 Dec 21:08:49 21:15:52 71° 260° (W) 21:24:12 437.405
SO-50 19 Dec 21:10:59 21:13:45 16° 113° (ESE) 21:16:33 436.795
CUBEBUG 1 19 Dec 21:15:27 21:18:39 20° 55° (NE) 21:21:50 437.445
DELFI C3 19 Dec 21:15:37 21:19:45 89° 250° (WSW) 21:23:56 145.870
50 SAT 19 Dec 21:18:11 21:21:49 33° 63° (ENE) 21:25:30 437.505
RS-15 19 Dec 21:21:51 21:32:45 63° 236° (WSW) 21:44:06 29.354- 29.394
DOVE 4 19 Dec 21:23:08 21:27:06 44° 262° (W) 21:31:13 437.250
BEESAT 3 19 Dec 21:28:42 21:32:56 83° 41° (NE) 21:37:07 437.485
AIST 2 19 Dec 21:29:38 21:33:54 53° 33° (NNE) 21:38:07 435.215
Oscar 11 19 Dec 21:32:04 21:36:21 57° 259° (W) 21:40:41 145.826/435.025
HUMSAT D 19 Dec 21:32:09 21:36:11 52° 68° (ENE) 21:40:18 437.325/437.525
UKube-1 19 Dec 21:39:56 21:44:13 57° 258° (WSW) 21:48:31 .
PCSat 19 Dec 21:43:13 21:48:34 53° 37° (NE) 21:53:53 145.827
TIGRISAT 19 Dec 21:44:17 21:45:40 11° 82° (E) 21:47:03 435.000
CUBEBUG 2 19 Dec 21:45:06 21:49:17 64° 258° (WSW) 21:53:37 437.445
AAUSAT CUBESAT 2 19 Dec 21:55:19 21:58:37 22° 269° (W) 22:01:57 437.432
CINEMA 3 19 Dec 21:55:55 21:59:47 35° 264° (W) 22:03:46 145.822/145.860
DANDE 19 Dec 21:55:58 22:02:36 46° 267° (W) 22:10:29 436.750
ESTCUBE 1 19 Dec 21:57:13 22:01:31 43° 65° (ENE) 22:05:49 437.505/2401.250
VELOX 1 19 Dec 21:58:06 22:02:32 86° 73° (ENE) 22:07:00 145.980
YUBILEINY 19 Dec 21:58:22 22:01:42 13° 62° (ENE) 22:05:01 435.215
STRAND 1 19 Dec 21:58:53 22:02:00 17° 313° (NW) 22:05:07 437.568
ZACube-1 19 Dec 21:59:57 22:04:07 61° 258° (WSW) 22:08:25 437.345
BRITE-PL 19 Dec 22:02:22 22:04:23 13° 275° (W) 22:06:25 437.365/2234.400
CANX-2 19 Dec 22:07:18 22:09:11 13° 276° (W) 22:11:04 2200.000
BEESAT 2 19 Dec 22:07:47 22:11:57 59° 229° (SW) 22:16:04 435.950
UNISAT 6 19 Dec 22:11:26 22:14:47 19° 88° (E) 22:18:09 437.425
HO-68 19 Dec 22:21:24 22:26:20 19° 276° (W) 22:31:18 435.675
DUCHIFAT 1 19 Dec 22:23:58 22:26:26 15° 87° (E) 22:28:54 145.980
UWE-3 19 Dec 22:25:55 22:29:44 32° 265° (W) 22:33:39 435.000/436.395/437.385
TISAT 1 19 Dec 22:26:44 22:30:11 25° 59° (ENE) 22:33:38 437.305
SPROUT 19 Dec 22:26:58 22:30:24 24° 58° (ENE) 22:33:51 437.525
FUNcube-1 19 Dec 22:27:28 22:31:21 36° 264° (W) 22:35:21 145.935
BUGSAT 1 19 Dec 22:28:06 22:29:56 13° 86° (E) 22:31:47 437.445
COMPASS 1 19 Dec 22:33:14 22:33:51 10° 278° (W) 22:34:27 437.405
QB50P2 19 Dec 22:36:21 22:39:29 20° 90° (E) 22:42:36 145.880/145.840
AISAT 19 Dec 22:41:11 22:45:23 41° 262° (W) 22:49:36 437.250
ANTELSAT 19 Dec 22:42:44 22:47:00 33° 95° (E) 22:51:16 437.575/2403.000
POLYITAN 1 19 Dec 22:44:39 22:48:04 23° 92° (E) 22:51:29 437.675
DX 1 19 Dec 22:45:53 22:48:45 17° 271° (W) 22:51:38 434.975-435.025
NANOSAT C BR1 19 Dec 22:47:42 22:51:10 24° 92° (E) 22:54:37 145.865
SWISSCUBE 19 Dec 22:48:45 22:51:13 14° 46° (NE) 22:53:41 437.505
SO-50 19 Dec 22:48:55 22:53:30 71° 134° (SE) 22:58:16 436.795
ITUPSAT 1 19 Dec 22:49:04 22:51:21 13° 45° (NE) 22:53:38 437.325
CUBEBUG 1 19 Dec 22:50:13 22:54:36 76° 255° (WSW) 22:58:58 437.445
CUSAT 1 19 Dec 22:52:58 22:58:09 22° 279° (W) 23:03:53 437.405
50 SAT 19 Dec 22:53:19 22:57:03 36° 263° (W) 23:00:50 437.505
DELFI C3 19 Dec 22:53:33 22:55:41 14° 274° (W) 22:57:50 145.870
AUBIESAT-1 19 Dec 23:00:54 23:03:51 16° 41° (NE) 23:06:46 437.475
QB50P1 19 Dec 23:01:45 23:05:33 31° 95° (E) 23:09:21 145.935-145.965
BEESAT 3 19 Dec 23:07:31 23:10:41 21° 242° (WSW) 23:13:49 437.485
AIST 2 19 Dec 23:08:27 23:12:28 38° 235° (SW) 23:16:25 435.215
HUMSAT D 19 Dec 23:08:54 23:12:17 24° 268° (W) 23:15:44 437.325/437.525
BEESAT 19 Dec 23:12:51 23:16:09 19° 51° (NE) 23:19:28 436.000
TIGRISAT 19 Dec 23:18:43 23:23:22 62° 102° (ESE) 23:28:03 435.000
M-CUBED/EXP-1 PRIME 19 Dec 23:24:41 23:28:29 23° 47° (NE) 23:32:15 437.505
PCSat 19 Dec 23:26:49 23:32:00 46° 239° (WSW) 23:37:08 145.827
POPSAT HIP 1 19 Dec 23:30:09 23:34:20 54° 101° (E) 23:38:31 437.405
ESTCUBE 1 19 Dec 23:34:25 23:38:31 33° 265° (W) 23:42:38 437.505/2401.250
RS-15 19 Dec 23:35:21 23:42:50 21° 262° (W) 23:50:32 29.354- 29.394
VELOX 1 19 Dec 23:37:01 23:39:46 16° 273° (W) 23:42:30 145.980
DANDE 19 Dec 23:41:58 23:44:46 13° 286° (WNW) 23:47:43 436.750
UNISAT 6 19 Dec 23:47:26 23:52:08 79° 288° (WNW) 23:56:52 437.425
BEESAT 2 19 Dec 23:47:54 23:49:23 12° 249° (WSW) 23:50:50 435.950
YUBILEINY 19 Dec 23:48:00 23:56:11 47° 87° (E) 00:04:21 435.215
DUCHIFAT 1 19 Dec 23:58:39 00:02:55 87° 287° (WNW) 00:07:11 145.980
TISAT 1 20 Dec 00:01:39 00:05:47 54° 259° (W) 00:09:56 437.305
SPROUT 20 Dec 00:01:59 00:06:13 59° 258° (WSW) 00:10:28 437.525
BUGSAT 1 20 Dec 00:02:02 00:06:07 86° 106° (ESE) 00:10:11 437.445
O/OREOS (USA 219) 20 Dec 00:10:57 00:11:53 11° 96° (E) 00:12:49 437.305
QB50P2 20 Dec 00:11:35 00:15:50 67° 290° (WNW) 00:20:05 145.880/145.840
ANTELSAT 20 Dec 00:19:28 00:23:56 45° 294° (WNW) 00:28:27 437.575/2403.000
POLYITAN 1 20 Dec 00:20:09 00:24:21 57° 291° (WNW) 00:28:34 437.675
NANOSAT C BR1 20 Dec 00:23:12 00:27:21 54° 292° (WNW) 00:31:30 145.865
SWISSCUBE 20 Dec 00:23:29 00:28:12 58° 67° (ENE) 00:32:55 437.505
ITUPSAT 1 20 Dec 00:23:37 00:28:19 54° 67° (ENE) 00:33:01 437.325
STARS 20 Dec 00:29:34 00:32:05 15° 50° (NE) 00:34:37 437.465
CUBEBUG 1 20 Dec 00:29:52 00:31:45 13° 275° (W) 00:33:38 437.445
SO-50 20 Dec 00:29:58 00:34:24 40° 337° (NNW) 00:38:58 436.795
KKS-1 20 Dec 00:30:32 00:33:45 20° 54° (NE) 00:36:58 437.445
AUBIESAT-1 20 Dec 00:33:11 00:37:57 56° 61° (ENE) 00:42:44 437.475
QB50P1 20 Dec 00:37:34 00:41:34 41° 295° (WNW) 00:45:35 145.935-145.965
BEESAT 20 Dec 00:48:34 00:53:23 83° 72° (ENE) 00:58:13 436.000
TIGRISAT 20 Dec 00:55:58 00:59:50 26° 302° (WNW) 01:03:43 435.000
M-CUBED/EXP-1 PRIME 20 Dec 00:58:02 01:02:57 88° 66° (ENE) 01:07:53 437.505
POPSAT HIP 1 20 Dec 01:06:30 01:10:01 26° 301° (WNW) 01:13:32 437.405
Oscar 19 20 Dec 01:10:57 01:15:06 24° 90° (E) 01:19:14 437.125/150
UNISAT 6 20 Dec 01:25:14 01:28:17 18° 308° (NW) 01:31:21 437.425
ITAMSAT 1 20 Dec 01:25:54 01:28:27 14° 83° (E) 01:31:00 435.822/435.867
DUCHIFAT 1 20 Dec 01:35:32 01:38:14 17° 307° (NW) 01:40:55 145.980
BUGSAT 1 20 Dec 01:38:32 01:41:07 17° 306° (NW) 01:43:43 437.445
YUBILEINY 20 Dec 01:44:21 01:52:55 57° 292° (WNW) 02:01:31 435.215
O/OREOS (USA 219) 20 Dec 01:45:59 01:50:22 62° 117° (ESE) 01:54:49 437.305
QB50P2 20 Dec 01:48:55 01:51:02 14° 310° (NW) 01:53:10 145.880/145.840
POLYITAN 1 20 Dec 01:57:49 01:59:29 12° 312° (NW) 02:01:08 437.675
ANTELSAT 20 Dec 01:58:19 01:59:43 11° 315° (NW) 02:01:08 437.575/2403.000
NANOSAT C BR1 20 Dec 02:00:58 02:02:23 12° 312° (NW) 02:03:47 145.865
ITUPSAT 1 20 Dec 02:02:20 02:06:30 28° 267° (W) 02:10:40 437.325
SWISSCUBE 20 Dec 02:02:21 02:06:24 27° 268° (W) 02:10:28 437.505
STARS 20 Dec 02:03:30 02:07:53 73° 71° (ENE) 02:12:18 437.465
KKS-1 20 Dec 02:05:28 02:09:55 81° 255° (WSW) 02:14:24 437.445
AUBIESAT-1 20 Dec 02:08:49 02:13:08 31° 260° (W) 02:17:28 437.475
SO-50 20 Dec 02:11:51 02:16:00 29° 1° (N) 02:20:14 436.795
BEESAT 20 Dec 02:28:33 02:31:52 18° 272° (W) 02:35:12 436.000
M-CUBED/EXP-1 PRIME 20 Dec 02:35:03 02:38:33 19° 266° (W) 02:42:04 437.505
Oscar 19 20 Dec 02:49:46 02:54:59 73° 290° (WNW) 03:00:10 437.125/150
Gurwin Techsat 1B 20 Dec 02:54:28 02:59:32 42° 97° (E) 03:04:33 435.225
AIST 1 20 Dec 02:55:06 02:58:57 31° 66° (ENE) 03:02:46
ITAMSAT 1 20 Dec 03:03:46 03:08:57 69° 104° (ESE) 03:14:07 435.822/435.867
MOZHAYETS 4 20 Dec 03:10:06 03:13:59 27° 58° (ENE) 03:17:52
HORYU 2 20 Dec 03:20:04 03:24:03 29° 94° (E) 03:28:00 437.375
O/OREOS (USA 219) 20 Dec 03:26:13 03:30:08 29° 319° (NW) 03:34:05 437.305
STARS 20 Dec 03:41:47 03:44:53 19° 271° (W) 03:48:00 437.465
KKS-1 20 Dec 03:45:05 03:47:19 14° 275° (W) 03:49:34 437.445
YUBILEINY 20 Dec 03:45:54 03:52:05 21° 319° (NW) 03:58:17 435.215
AO-7 20 Dec 03:47:31 03:54:38 30° 90° (E) 04:01:42 29.400- 29.500
GONETS M04 20 Dec 03:51:39 03:56:10 15° 65° (ENE) 04:00:40
SO-50 20 Dec 03:53:00 03:57:35 42° 25° (NNE) 04:02:15 436.795
PRISM 20 Dec 04:10:36 04:13:39 20° 55° (NE) 04:16:42 437.425
JAS-2 20 Dec 04:23:55 04:27:56 19° 83° (E) 04:31:41 435.910
STRAND 1 20 Dec 04:26:08 04:29:35 19° 49° (NE) 04:33:02 437.568
Oscar 19 20 Dec 04:30:05 04:33:34 18° 311° (NW) 04:37:02 437.125/150
CUBESAT XI-V 20 Dec 04:32:10 04:35:18 18° 53° (NE) 04:38:27 437.345
AIST 1 20 Dec 04:32:43 04:36:44 39° 267° (W) 04:40:43
Gurwin Techsat 1B 20 Dec 04:34:33 04:39:34 43° 298° (WNW) 04:44:32 435.225
ITAMSAT 1 20 Dec 04:43:47 04:48:06 28° 305° (NW) 04:52:25 435.822/435.867
MOZHAYETS 4 20 Dec 04:46:20 04:50:56 60° 259° (WSW) 04:55:34
HORYU 2 20 Dec 04:56:34 05:00:56 48° 294° (WNW) 05:05:16 437.375
O/OREOS (USA 219) 20 Dec 05:09:11 05:11:02 12° 343° (NNW) 05:12:54 437.305
SO-50 20 Dec 05:33:38 05:38:28 69° 227° (SW) 05:43:21 436.795
AO-7 20 Dec 05:40:02 05:48:29 88° 293° (WNW) 05:56:53 29.400- 29.500
GONETS M04 20 Dec 05:42:25 05:50:54 54° 90° (E) 05:59:23
PRISM 20 Dec 05:44:30 05:48:45 77° 255° (WSW) 05:53:00 437.425
YUBILEINY 20 Dec 05:52:02 05:53:38 11° 353° (N) 05:55:14 435.215
Cubesat XI-IV 20 Dec 05:54:26 05:58:35 22° 89° (E) 06:02:42 437.490
STRAND 1 20 Dec 06:02:57 06:08:03 76° 70° (ENE) 06:13:11 437.568
CUBESAT XI-V 20 Dec 06:07:28 06:12:09 85° 73° (ENE) 06:16:50 437.345
JAS-2 20 Dec 06:08:06 06:14:09 87° 107° (ESE) 06:19:33 435.910
Gurwin Techsat 1B 20 Dec 06:16:15 06:18:19 12° 320° (NW) 06:20:22 435.225
CUTE-I 20 Dec 06:27:29 06:32:26 37° 96° (E) 06:37:20 437.470
MOZHAYETS 4 20 Dec 06:28:17 06:29:11 11° 279° (W) 06:30:05
HORYU 2 20 Dec 06:35:11 06:36:37 11° 315° (NW) 06:38:04 437.375
O/OREOS (USA 219) 20 Dec 06:51:26 06:52:33 11° 9° (N) 06:53:40 437.305
SO-50 20 Dec 07:15:16 07:18:17 17° 247° (WSW) 07:21:19 436.795
PRISM 20 Dec 07:23:19 07:25:02 12° 275° (W) 07:26:46 437.425
AO-7 20 Dec 07:33:15 07:40:30 34° 317° (NW) 07:47:44 29.400- 29.500
Cubesat XI-IV 20 Dec 07:33:57 07:39:17 78° 290° (WNW) 07:44:36 437.490
GONETS M04 20 Dec 07:39:20 07:47:55 51° 294° (WNW) 07:56:30
STRAND 1 20 Dec 07:43:53 07:47:49 22° 270° (W) 07:51:47 437.568
CUBESAT XI-V 20 Dec 07:47:09 07:50:14 17° 273° (W) 07:53:20 437.345
HO-68 20 Dec 07:50:46 07:54:57 16° 81° (E) 07:59:06 435.675
YUBILEINY 20 Dec 07:51:10 07:55:44 15° 28° (NNE) 08:00:18 435.215
JAS-2 20 Dec 07:53:48 07:58:33 25° 311° (NW) 08:02:55 435.910
CUTE-I 20 Dec 08:07:34 08:12:40 48° 297° (WNW) 08:17:44 437.470
CANX-2 20 Dec 08:07:54 08:09:47 13° 84° (E) 08:11:40 2200.000
ANTELSAT 20 Dec 08:15:11 08:17:40 15° 49° (NE) 08:20:11 437.575/2403.000
NANOSAT C BR1 20 Dec 08:16:36 08:16:49 10° 46° (NE) 08:17:01 145.865
BRITE-PL 20 Dec 08:17:57 08:21:01 17° 88° (E) 08:24:12 437.365/2234.400
QB50P1 20 Dec 08:29:07 08:30:56 13° 49° (NE) 08:32:46 145.935-145.965
O/OREOS (USA 219) 20 Dec 08:30:14 08:33:43 21° 35° (NE) 08:37:12 437.305
COMPASS 1 20 Dec 08:30:47 08:33:04 14° 85° (E) 08:35:21 437.405
SEEDS 20 Dec 08:35:13 08:38:09 18° 88° (E) 08:41:04 437.485
CUTE 1.7 + AOD 2 20 Dec 08:37:47 08:41:05 21° 90° (E) 08:44:21 437.475
GOMX 1 20 Dec 08:46:37 08:50:18 23° 91° (E) 08:54:10 467.674
CUSAT 1 20 Dec 08:48:46 08:51:11 15° 75° (ENE) 08:53:57 437.405
TIGRISAT 20 Dec 08:49:35 08:53:08 24° 57° (ENE) 08:56:46 435.000
POPSAT HIP 1 20 Dec 08:56:16 08:59:16 19° 55° (NE) 09:02:17 437.405
MaSat-1 20 Dec 09:07:22 09:08:08 11° 113° (ESE) 09:08:55 437.345
Oscar 11 20 Dec 09:12:46 09:15:41 17° 88° (E) 09:18:35 145.826/435.025
DOVE 4 20 Dec 09:13:55 09:18:00 29° 94° (E) 09:22:17 437.250
Cubesat XI-IV 20 Dec 09:14:55 09:18:40 20° 311° (NW) 09:22:25 437.490
UNISAT 6 20 Dec 09:17:46 09:21:52 38° 63° (ENE) 09:26:05 437.425
UKube-1 20 Dec 09:21:21 09:23:52 15° 87° (E) 09:26:23 .
DUCHIFAT 1 20 Dec 09:23:40 09:27:20 30° 61° (ENE) 09:31:01 145.980
BUGSAT 1 20 Dec 09:25:06 09:28:29 26° 60° (ENE) 09:31:51 437.445
AO-7 20 Dec 09:25:58 09:31:01 18° 343° (NNW) 09:36:03 29.400- 29.500
CUBEBUG 2 20 Dec 09:29:15 09:32:27 18° 88° (E) 09:35:41 437.445
AAUSAT CUBESAT 2 20 Dec 09:30:13 09:34:15 39° 97° (E) 09:38:15 437.432
QB50P2 20 Dec 09:36:35 09:40:29 38° 64° (ENE) 09:44:26 145.880/145.840
DANDE 20 Dec 09:36:43 09:40:09 28° 85° (E) 09:44:33 436.750
HO-68 20 Dec 09:37:05 09:44:13 62° 104° (ESE) 09:51:17 435.675
GONETS M04 20 Dec 09:41:27 09:47:22 19° 323° (NW) 09:53:19
ZACube-1 20 Dec 09:41:51 09:44:54 18° 88° (E) 09:47:58 437.345
CANX-2 20 Dec 09:42:09 09:46:30 77° 104° (ESE) 09:50:50 2200.000
CINEMA 3 20 Dec 09:42:29 09:46:42 33° 95° (E) 09:51:04 145.822/145.860
VELOX 1 20 Dec 09:44:25 09:44:51 10° 82° (E) 09:45:17 145.980
POLYITAN 1 20 Dec 09:45:08 09:49:08 45° 66° (ENE) 09:53:12 437.675
NANOSAT C BR1 20 Dec 09:47:43 09:51:45 46° 66° (ENE) 09:55:48 145.865
YUBILEINY 20 Dec 09:47:53 09:55:53 38° 58° (ENE) 10:03:49 435.215
CUTE-I 20 Dec 09:49:07 09:51:37 14° 318° (NW) 09:54:07 437.470
ANTELSAT 20 Dec 09:49:17 09:53:41 68° 70° (ENE) 09:58:13 437.575/2403.000
BRITE-PL 20 Dec 09:55:33 10:00:05 85° 287° (WNW) 10:04:59 437.365/2234.400
QB50P1 20 Dec 10:01:54 10:06:03 61° 70° (ENE) 10:10:15 145.935-145.965
COMPASS 1 20 Dec 10:05:10 10:09:29 87° 106° (ESE) 10:13:45 437.405
UWE-3 20 Dec 10:07:47 10:11:53 32° 95° (E) 10:16:02 435.000/436.395/437.385
FUNcube-1 20 Dec 10:08:12 10:12:05 28° 93° (E) 10:16:01 145.935
O/OREOS (USA 219) 20 Dec 10:09:18 10:13:50 81° 57° (ENE) 10:18:22 437.305
SEEDS 20 Dec 10:10:11 10:14:31 75° 288° (WNW) 10:18:48 437.485
CUTE 1.7 + AOD 2 20 Dec 10:13:08 10:17:26 64° 290° (WNW) 10:21:42 437.475
DELFI C3 20 Dec 10:24:07 10:28:14 58° 101° (ESE) 10:32:18 145.870
GOMX 1 20 Dec 10:24:16 10:28:49 66° 289° (WNW) 10:33:42 467.674
DX 1 20 Dec 10:24:49 10:29:05 51° 101° (E) 10:33:19 434.975-435.025
AISAT 20 Dec 10:24:55 10:28:29 23° 92° (E) 10:32:03 437.250
TIGRISAT 20 Dec 10:25:11 10:29:33 64° 258° (WSW) 10:34:04 435.000
50 SAT 20 Dec 10:26:17 10:29:27 21° 91° (E) 10:32:36 437.505
CUSAT 1 20 Dec 10:28:51 10:32:58 87° 103° (ESE) 10:38:38 437.405
POPSAT HIP 1 20 Dec 10:30:31 10:34:44 77° 256° (WSW) 10:38:59 437.405
CUBEBUG 1 20 Dec 10:33:26 10:35:21 13° 85° (E) 10:37:16 437.445
MaSat-1 20 Dec 10:39:03 10:41:11 39° 312° (NW) 10:43:19 437.345
HUMSAT D 20 Dec 10:44:58 10:48:58 36° 96° (E) 10:52:59 437.325/437.525
Oscar 11 20 Dec 10:48:01 10:52:26 79° 288° (WNW) 10:56:48 145.826/435.025
